Regional Weather Roundup
Issued by NWS Albany, NY

Home | Current Version | Previous Version | Text Only | Print | Product List | Glossary On
Versions: 1 2 3 4 5 6 7 8 9 10 11 12 13 14 15 16 17 18 19 20 21 22 23 24 25 26 27 28 29 30 31 32 33 34 35 36 37 38 39 40 41 42 43 44 45 46 47 48
000
ASUS41 KALY 191810
RWRALY

NEW YORK STATE HOURLY WEATHER ROUNDUP
NATIONAL WEATHER SERVICE ALBANY NY
100 PM EST FRI DEC 19 2014

NOTE: "FAIR" INDICATES FEW OR NO CLOUDS BELOW 12,000 FEET WITH NO
SIGNIFICANT WEATHER AND/OR NO OBSTRUCTIONS TO VISIBILITY.

NYZ032-033-038>043-046>054-057>066-NYZ062>081-191900-
EAST


CITY           SKY/WX    TMP DP  RH WIND       PRES   REMARKS
ALBANY         CLOUDY    30  20  66 NW17G24   30.06S WCI  18
GLENS FALLS    PTSUNNY   32  19  58 N13       30.03F WCI  22
POUGHKEEPSIE   CLOUDY    37  21  52 W9        30.02S WCI  30
MONTGOMERY     PTSUNNY   35  20  54 NW15      30.02S WCI  25
WHITE PLAINS   MOSUNNY   36  20  52 W16       29.99F WCI  26
ISLIP          MOSUNNY   39  22  50 NW12      29.99S WCI  32
NEW YORK CITY  MOSUNNY   36  21  54 NW14      30.03F WCI  27
CENTRAL PARK   MOSUNNY   37  19  48 W8G16     30.05F WCI  31
$$

NYZ005>009-017-018-044>046-055-056-191900-
CENTRAL


CITY           SKY/WX    TMP DP  RH WIND       PRES   REMARKS
FULTON         CLOUDY    27  20  75 NW8       30.13S WCI  19
SYRACUSE       FLURRIES  26  22  84 NW12      30.13F WCI  16
ROME           CLOUDY    26  20  77 W12       30.12F WCI  16
ELMIRA         CLOUDY    30  21  69 W10       30.09F WCI  21
BINGHAMTON     CLOUDY    22  18  85 NW7       30.04S WCI  13
MONTICELLO     CLOUDY    27  19  74 NW14      30.02S WCI  15
$$

NYZ026>034-041>043-191900-
NORTH


CITY           SKY/WX    TMP DP  RH WIND       PRES   REMARKS
WATERTOWN      CLOUDY    26  16  65 N7        30.14S WCI  18
FORT DRUM      NOT AVBL
MASSENA        CLOUDY    21  14  74 W9        30.15S WCI  11
SARANAC LAKE   CLOUDY    19  16  88 NW5       29.99S FOG     WCI  12
PLATTSBURGH    CLOUDY    27  18  69 CALM      30.07F
$$

NYZ001>004-010>016-019>021-191900-
WEST


CITY           SKY/WX    TMP DP  RH WIND       PRES   REMARKS
NIAGARA FALLS  PTSUNNY   28  21  75 NW10      30.16F WCI  19
BUFFALO        PTSUNNY   27  19  72 W12       30.16F WCI  17
DUNKIRK        CLOUDY    27  21  78 W8        30.18F WCI  19
JAMESTOWN      CLOUDY    23  19  86 W8        30.11S WCI  14
WELLSVILLE     CLOUDY    23  19  85 NW10      30.06F WCI  12
ROCHESTER      CLOUDY    27  20  75 W10       30.14F WCI  17
PENN YAN       CLOUDY    26  20  77 VRB6      30.11F WCI  19
$$

             KEY
       WCI = WIND CHILL INDEX
       VSB = VISIBILITY
       HX  = HEAT INDEX
$$


USA.gov is the U.S. government's official web portal to all federal, state and local government web resources and services.